User: anonymous   Login
Location: Rimouski
(48.4330°N, 68.5170°W)
Time: 09:25:29
(UTC-04:00)
Language:

TIGRISAT - Orbit

View from above orbital plane
View from above orbital plane
View from above satellite
View from above satellite

Ground track
Ground track

The orbit data is extracted from the following two-line orbital elements,

1 40043U 14033AK  19175.19023278  .00000070  00000-0  17621-4 0  9995
2 40043  97.7570  42.7948 0061485  79.3367 281.4758 14.74269066269413
Epoch (UTC): 24 June 2019 04:33:56
Eccentricity: 0.0061485
inclination: 97.7570°
perigee height: 604 km
apogee height: 690 km
right ascension of ascending node: 42.7948°
argument of perigee: 79.3367°
revolutions per day: 14.74269066
mean anomaly at epoch: 281.4758°
orbit number at epoch: 26941

The dashed part of the orbit path shows where the satellite is in the earth's shadow,  

DLR